Flag for India Weather past 2 weeks in Chennai, Tamil Nadu, India

Now
82 °F

Passing clouds.


Feels Like: 91 °F
Forecast: 78 / 88 °F
Wind: 9 mph from Southeast

Location: Madras / Minambakkam

Current Time: Mar 6, 2015 at 12:50:10 AM

Latest Report: Mar 5, 2015 at 11:40 PM


Visibility: 4 mi

Pressure: 29.92 "Hg

Humidity: 84%

Dew point: 77 °F

Location of ChennaiLocation

Historic Weather in Chennai — Graph

°F

Chennai temperature yesterday

Maximum temperature yesterday: 91 °F (at 11:40 AM)
Minimum temperature yesterday: 79 °F (at 3:40 AM)
Average temperature yesterday: 85 °F

Past Weeks' High & Low Weather Summary

 TemperatureHumidityPressure
High91 °F (Feb 24, 1:40 PM)94% (Feb 19, 2:40 AM)30.01 "Hg (Feb 19, 2:40 AM)
Low68 °F (Feb 25, 5:40 AM)27% (Feb 25, 12:40 PM)29.74 "Hg (Feb 26, 3:40 PM)
Average81 °F73%29.87 "Hg
* Reported Feb 18 10:40 PM — Mar 5 10:40 PM, Chennai, Weather by CustomWeather, © 2015

Note: Actual official high and low records may vary slightly from our data, if they occured in-between our weather recording intervals... More about our weather records

Advertising

Chennai weather history for previous 24 hours

 ConditionsComfort  
Time TempWeatherWind HumidityBarometerVisibility
10:40 PM
Thu, Mar 5
82 °FPassing clouds.12 mph84%29.95 "Hg4 mi
9:40 PM82 °FPassing clouds.8 mph84%29.95 "Hg4 mi
8:40 PM84 °FPassing clouds.9 mph79%29.92 "Hg4 mi
7:40 PM84 °FPassing clouds.13 mph79%29.89 "Hg4 mi
6:40 PM84 °FScattered clouds.12 mph79%29.86 "Hg4 mi
5:40 PM84 °FScattered clouds.9 mph79%29.83 "Hg4 mi
4:40 PM86 °FScattered clouds.9 mph75%29.83 "Hg4 mi
3:40 PM90 °FScattered clouds.9 mph67%29.83 "Hg5 mi
2:40 PM90 °FScattered clouds.9 mph67%29.83 "Hg5 mi
1:40 PM90 °FScattered clouds.13 mph67%29.86 "Hg5 mi
12:40 PM91 °FScattered clouds.12 mph63%29.89 "Hg5 mi
11:40 AM91 °FScattered clouds.12 mph63%29.92 "Hg5 mi
10:40 AM90 °FScattered clouds.7 mph63%29.92 "Hg4 mi
9:40 AM88 °FScattered clouds.9 mph70%29.92 "Hg4 mi
8:40 AM84 °FFog.5 mph79%29.92 "Hg2 mi
5:40 AM79 °FFog.No wind94%29.83 "Hg3 mi
4:40 AM79 °FFog.5 mph94%29.83 "Hg3 mi
3:40 AM79 °FPassing clouds.5 mph94%29.83 "Hg4 mi
2:40 AM81 °FPassing clouds.5 mph89%29.83 "Hg4 mi
1:40 AM81 °FPassing clouds.3 mph89%29.86 "Hg4 mi
12:40 AM82 °FPassing clouds.6 mph84%29.86 "Hg4 mi
Weather by CustomWeather, © 2015

See weather overviewHow to use our weather pages